#timestamp,LO_Frequency,Hit,StdDev 
1636405215.6,286047000.7,N
1636405235.5,286046999.0,N
1636405255.3,286047001.1,N
1636405275.2,286046999.5,N
1636405295.9,286046996.9,N
1636405315.7,286046997.9,N
1636405335.6,286046997.4,N
1636405355.4,286046995.0,N
1636405375.2,286046995.7,N
1636405395.1,286046995.2,N
1636405396.0,286046995.2,N
1636405415.8,286046996.3,N
1636405435.7,286046996.1,N
1636405455.5,286046995.9,N
1636405475.3,286046997.4,N
1636405495.2,286046996.9,N
1636405515.0,286046998.0,N
1636405515.9,286046998.0,N
1636405535.8,286046995.1,N
1636405555.6,286046997.1,N
1636405575.4,286046997.2,N
1636405595.3,286046997.7,N
1636405615.1,286046997.6,N
1636405635.8,286046997.8,N
1636405655.7,286046996.7,N
1636405675.5,286046997.7,N
1636405695.4,286046998.4,N
1636405715.2,286046997.0,N
1636405735.0,286046995.3,N
1636405735.9,286046995.3,N
1636405755.8,286046998.0,N
1636405775.6,286046995.5,Y
1636405795.5,286046998.3,P
1636405815.3,286047001.0,N
1636405835.1,286047000.5,N
1636405855.9,286047000.9,N
1636405875.7,286046999.4,N
1636405895.5,286046998.7,N
1636405915.4,286046998.1,N
1636405935.2,286047001.2,N
1636405955.1,286047000.9,N
1636405956.0,286047000.9,N
1636405975.8,286047001.2,N
1636405995.6,286047001.4,N
1636406015.5,286047000.4,N
1636406035.3,286046999.9,N
1636406055.1,286047002.6,N
1636406075.9,286047001.6,N
1636406095.7,286047002.4,N
1636406115.6,286047000.4,N
1636406135.4,286047000.3,N
1636406155.2,286047002.2,N
1636406175.1,286046998.1,N
1636406176.0,286046998.1,N
1636406195.8,286047000.7,N
1636406215.6,286046999.9,N
1636406235.5,286047001.7,N
1636406255.3,286047000.2,N
1636406275.1,286047002.2,N
1636406295.9,286047002.2,N
1636406315.7,286047001.3,N
1636406335.6,286047003.5,N
1636406355.4,286047005.2,Y
1636406375.2,286047003.2,P
1636406395.1,286047003.2,N
1636406396.0,286047003.2,N
1636406415.8,286047003.1,N
1636406435.7,286047004.2,Y
1636406455.5,286047001.0,P
1636406475.3,286047002.7,P
1636406495.2,286047003.4,P
1636406515.9,286047003.5,Y
1636406535.7,286047001.1,P
1636406555.6,286046999.6,N
1636406575.4,286046999.1,N
1636406595.3,286046996.7,N
1636406615.1,286046997.6,N
1636406616.0,286046997.6,N
1636406635.8,286046995.3,N
1636406655.7,286046995.1,N
1636406675.5,286046997.4,N
1636406695.3,286046997.3,N
1636406715.2,286046997.7,N
1636406735.0,286046997.6,N
1636406735.9,286046997.6,N
1636406755.8,286046997.0,N
1636406775.6,286046996.5,N
1636406795.4,286046997.1,N
1636406815.3,286046996.7,N
1636406835.1,286046996.5,N
1636406855.8,286046996.5,N
1636406875.7,286046998.9,N
1636406895.5,286046999.6,N
1636406915.3,286046996.9,N
1636406935.2,286046998.9,N
1636406955.0,286046999.5,N
1636406955.9,286046999.5,N
1636406975.8,286047001.1,N
1636406995.6,286046999.3,N
1636407015.4,286046999.2,N
1636407035.3,286046999.6,N
1636407055.1,286047000.4,N
1636407075.9,286047000.6,N
1636407095.7,286047000.9,N
1636407115.5,286046996.5,N
1636407135.4,286046998.4,N
1636407155.2,286047000.8,N
1636407175.0,286047001.1,N
1636407175.9,286047001.1,N
1636407195.8,286047000.9,N
1636407215.6,286046999.1,N
1636407235.5,286046998.4,N
1636407255.3,286046999.8,N
1636407275.1,286047002.1,N
1636407295.9,286047000.0,N
1636407315.7,286047002.6,N
1636407335.5,286047002.7,N
1636407355.4,286047001.5,N
1636407375.2,286047002.4,N
1636407395.1,286047002.8,N
1636407396.0,286047002.8,N
1636407415.8,286047000.3,N
1636407435.6,286047000.1,N
1636407455.5,286047002.1,N
1636407475.3,286047002.9,N
1636407495.1,286047003.0,N
1636407515.9,286047003.9,N
1636407535.7,286047001.7,N
1636407555.6,286047004.1,N
1636407575.4,286047003.2,N
1636407595.2,286047006.0,Y
1636407615.1,286047001.3,P
1636407616.0,286047001.3,P
1636407635.8,286047001.7,P
1636407655.6,286047003.5,Y
1636407675.5,286047004.3,P
1636407695.3,286047006.0,P
1636407715.2,286047003.9,N
1636407735.9,286047002.2,N
1636407755.7,286047004.0,N
1636407775.6,286047003.8,N
1636407795.4,286047004.4,Y
1636407815.2,286047000.2,P
1636407835.1,286046999.9,N
1636407836.0,286046999.9,N
1636407855.8,286047002.4,N
1636407875.7,286047000.4,N
1636407895.5,286046999.3,N
1636407915.3,286046999.0,N
1636407935.2,286046999.4,N
1636407955.0,286046999.4,N
1636407955.9,286046999.4,N
1636407975.8,286047001.2,N
1636407995.6,286046998.2,N
1636408015.4,286047001.0,N
1636408035.3,286047001.2,N
1636408055.1,286046998.3,N
1636408075.8,286046998.8,N
1636408095.7,286047011.9,Y
1636408115.5,286046998.1,P
1636408135.4,286047002.3,N
1636408155.2,286047002.3,N
1636408175.0,286047000.7,N
1636408175.9,286047000.7,N
1636408195.8,286047002.4,N
1636408215.6,286046999.8,N
1636408235.4,286047002.5,N
1636408255.3,286047002.4,N
1636408275.1,286047002.0,N
1636408295.9,286047002.7,N
1636408315.7,286046999.9,N
1636408335.5,286047001.1,N
1636408355.4,286047000.1,N
1636408375.2,286046998.1,N
1636408395.0,286046999.9,N
1636408395.9,286046999.9,N
1636408415.8,286046998.2,N
1636408435.6,286047000.7,N
1636408455.5,286046998.1,N
1636408475.3,286046998.4,N
1636408495.1,286047001.1,N
1636408515.9,286047000.3,N
1636408535.7,286047000.1,N
1636408555.5,286047000.3,N
1636408575.4,286047000.3,N
1636408595.2,286047000.3,N
1636408615.1,286046999.9,N
1636408616.0,286046999.9,N
1636408635.8,286047000.1,N
1636408655.6,286047000.1,N
1636408675.5,286046999.9,N
1636408695.3,286047002.5,N
1636408715.1,286047002.0,N
1636408735.9,286047002.0,N
1636408755.7,286047004.3,Y
1636408775.6,286047002.6,P
1636408795.4,286047002.2,N
